Theta_e
325 324 323 323 324 324 323 323 323 323 323 323 323 324 324 324 324 326 328 329 329 328 326 324 324 325 324 323 322 322 322 322 321 322 321 320 319 317 316 313 312 312
324 323 321 322 321 322 323 323 323 323 323 323 323 322 323 324 325 326 327 327 327 327 326 324 323 324 323 322 322 322 320 320 319 319 319 318 317 315 315 312 310 309
321 321 321 320 321 320 321 322 322 323 322 322 322 322 323 324 325 327 327 327 326 325 325 324 323 322 322 322 322 320 318 317 317 316 315 316 312 313 312 309 308 307
318 319 319 319 319 319 320 320 321 321 321 321 322 323 323 323 325 326 326 320 325 324 323 323 322 321 321 320 319 317 316 316 316 314 313 308 308 308 308 307 306 302
315 317 318 318 319 319 319 319 319 320 320 321 321 321 321 321 322 323 324 323 323 322 321 320 320 319 318 318 318 314 313 312 310 310 307 305 304 305 305 305 302 299
312 313 314 316 316 317 319 319 318 318 319 316 317 317 320 318 318 318 317 317 316 317 316 315 315 315 315 315 315 313 310 307 305 305 304 303 302 302 304 302 301 298
310 311 312 312 313 313 313 314 314 313 315 315 317 316 317 314 314 315 315 314 314 312 313 312 312 311 311 312 312 310 308 306 304 304 302 300 300 299 299 299 299 296
307 308 309 310 311 311 310 311 311 312 313 312 312 311 313 314 314 312 311 313 313 312 310 310 310 311 309 311 310 307 304 304 303 302 301 298 298 297 295 296 296 293
306 308 309 308 308 308 308 308 308 309 311 310 309 309 308 312 314 313 312 311 311 309 309 307 308 307 304 305 306 305 303 302 301 301 299 297 296 296 294 293 292 291
301 303 306 307 308 308 308 308 309 309 308 309 310 308 308 307 308 309 309 309 308 306 305 305 305 303 302 303 304 302 301 300 298 299 298 297 296 294 293 292 291 289
297 298 299 301 303 304 304 304 304 304 304 305 304 305 306 305 304 303 304 305 306 305 304 303 302 301 302 302 302 301 301 300 298 298 296 295 294 293 291 291 290 289
300 300 301 301 302 302 301 302 302 302 302 301 302 304 302 301 301 300 301 303 303 303 303 302 300 300 300 301 300 299 299 298 297 297 296 294 293 292 291 290 289 288
300 301 301 301 301 301 300 300 299 298 299 299 298 299 299 298 297 297 295 297 299 298 299 299 299 297 297 296 295 295 295 294 293 293 292 292 291 290 289 288 287 286
298 298 298 299 298 299 298 298 298 296 296 295 295 296 295 294 295 296 294 294 296 295 296 294 293 293 293 293 293 292 293 293 292 291 290 288 287 287 287 286 285 285
299 297 297 295 294 295 295 294 293 292 291 292 292 293 294 293 293 294 293 293 293 292 293 292 294 294 293 293 293 292 292 291 290 289 288 287 286 285 285 285 284 284
296 295 295 295 294 293 291 290 290 289 290 290 290 290 291 291 292 291 291 292 292 291 292 292 293 294 292 292 293 293 292 291 289 288 287 286 285 284 283 284 283 283
294 293 292 291 291 290 290 289 289 289 289 289 289 290 290 290 290 291 290 290 292 292 291 291 293 293 291 293 294 293 291 290 289 287 286 285 285 284 283 282 282 282
293 292 290 290 290 290 290 290 289 289 289 289 289 289 289 289 290 290 291 291 291 290 290 290 290 291 292 293 293 293 291 289 288 287 286 285 284 283 282 282 282 281
292 291 290 290 290 289 290 289 289 288 288 288 289 288 288 289 290 290 290 290 290 290 290 290 289 290 292 292 293 292 292 289 287 287 285 284 283 282 282 282 281 281
292 291 290 290 289 289 288 288 287 288 288 288 288 288 288 288 288 289 288 289 289 289 289 289 289 289 292 292 292 292 292 290 287 286 285 284 283 282 282 281 281 280
292 291 290 290 289 288 287 287 287 287 287 287 287 287 287 287 287 287 288 287 288 288 289 288 288 289 291 291 292 292 292 289 286 286 285 283 282 281 281 281 281 280
291 291 290 289 288 288 287 287 287 287 287 287 287 287 287 287 287 287 287 286 287 287 287 287 287 289 290 291 291 292 292 287 286 285 284 283 281 281 280 280 280 280
291 291 290 289 288 287 287 287 287 287 287 287 286 287 286 286 286 286 286 286 286 286 286 287 286 288 289 290 291 291 290 286 285 285 284 283 281 280 280 280 280 279
292 291 290 289 288 288 287 287 287 287 286 286 286 286 286 286 286 286 286 286 286 286 287 286 286 286 289 289 290 291 289 286 285 285 283 283 280 279 280 279 280 281
291 290 289 289 288 288 287 287 287 287 286 286 286 286 286 286 286 286 286 286 286 286 286 286 286 286 288 289 290 290 288 285 285 284 282 281 279 278 278 279 279 281
291 289 288 288 287 287 287 287 287 286 286 286 286 286 286 286 286 286 286 286 286 286 286 286 286 286 286 289 289 289 289 286 285 283 282 280 278 278 277 275 278 278
Wind_Speed
9 8 9 9 9 8 8 8 8 8 8 7 9 9 10 8 8 10 10 10 10 10 9 8 9 9 8 8 8 7 7 8 8 8 10 10 10 11 10 8 7 7
9 8 8 8 8 7 7 7 8 9 9 8 7 7 8 8 9 10 10 10 10 11 9 8 9 10 9 8 8 9 8 9 9 7 9 12 10 10 10 9 8 7
7 7 7 7 7 6 6 5 6 7 8 8 6 7 7 8 9 10 10 11 10 11 11 10 9 10 10 10 10 9 9 10 10 8 8 10 8 8 7 7 6 6
5 6 6 6 6 6 6 7 7 6 6 7 9 7 6 6 8 9 9 9 10 10 10 11 11 10 9 9 9 8 9 9 9 8 7 6 6 6 7 6 6 5
5 6 6 6 6 6 6 6 7 7 7 8 6 7 7 6 6 6 7 7 8 8 8 9 9 9 9 9 9 8 8 8 7 7 7 7 6 6 6 7 7 6
3 3 5 5 5 5 7 7 6 5 5 5 5 4 5 4 4 4 4 5 5 5 6 6 7 7 9 9 9 8 8 8 6 8 8 8 6 5 5 6 8 9
2 2 3 2 2 3 4 4 3 2 2 1 0 2 2 4 4 4 4 5 6 6 7 7 7 7 7 8 9 9 8 10 9 8 8 6 6 5 4 6 7 8
3 3 3 3 3 3 4 3 3 2 2 2 3 4 4 5 5 4 4 6 7 6 6 7 7 8 8 9 9 9 8 7 9 10 9 8 7 7 6 5 6 8
1 3 3 4 4 4 4 4 4 4 1 3 4 5 4 5 7 8 7 6 6 7 7 6 7 7 5 6 6 9 10 9 9 11 11 11 10 10 9 7 7 8
1 2 2 4 4 4 4 3 3 4 3 4 4 4 4 4 3 4 5 6 7 6 6 7 7 6 6 6 7 7 7 9 9 9 9 10 10 9 8 8 9 8
2 2 3 4 4 3 3 3 2 2 2 3 4 4 4 4 4 3 4 4 6 6 7 7 7 6 7 8 7 7 9 10 10 9 8 9 8 8 9 9 9 10
2 2 2 2 2 3 3 3 2 1 2 2 1 3 3 3 3 3 4 5 5 6 6 7 6 6 7 7 7 6 7 7 8 8 8 9 9 9 10 9 10 9
2 2 3 2 2 3 4 4 3 1 1 2 1 1 2 3 2 3 3 4 4 4 4 5 5 6 5 4 4 4 5 6 6 6 6 6 7 8 8 7 7 8
2 3 3 1 0 1 0 0 0 1 1 0 0 1 2 3 4 4 2 1 2 3 3 3 4 4 4 5 6 4 4 6 8 8 8 6 7 7 8 8 8 8
3 2 2 1 0 0 0 0 1 1 1 0 0 0 0 0 1 1 2 2 2 3 3 4 5 6 6 7 6 6 5 6 7 9 9 8 7 7 7 8 7 8
4 3 3 2 1 1 1 1 1 1 1 1 1 0 0 1 2 2 3 4 4 3 3 4 5 5 7 10 9 9 8 7 5 6 8 8 8 8 6 6 8 7
4 4 3 2 2 3 3 2 2 2 2 1 1 0 0 0 1 2 3 3 3 4 4 4 5 4 8 10 10 10 8 7 8 8 7 7 8 9 9 8 6 6
4 4 3 3 3 3 3 3 3 3 2 2 1 0 1 1 0 0 1 1 2 2 3 4 4 5 8 9 10 11 10 8 8 8 8 8 8 8 7 7 7 7
4 4 4 3 3 3 3 3 3 3 2 1 1 1 1 1 0 1 1 1 2 3 4 3 3 5 8 10 11 11 11 8 6 7 8 8 8 8 8 7 7 8
5 4 4 3 4 4 4 3 2 2 2 2 2 1 1 1 1 2 1 2 3 3 3 2 3 3 7 9 10 10 10 7 4 6 6 7 7 8 8 9 9 9
5 4 4 4 4 3 3 3 3 2 2 2 2 2 2 2 2 2 3 3 3 3 3 3 3 4 7 9 9 9 9 6 4 4 5 5 5 6 7 8 8 8
5 5 4 5 4 4 3 3 3 3 4 3 3 2 2 2 2 3 3 3 3 3 3 4 3 6 7 8 9 10 10 6 5 6 6 6 6 6 6 6 6 7
6 6 5 5 4 4 4 4 4 4 3 3 3 3 3 3 4 3 3 4 4 3 4 4 3 6 9 9 10 11 9 4 4 4 5 7 7 5 6 6 6 7
6 6 5 5 5 5 4 3 2 2 2 2 3 3 3 2 2 2 2 2 3 4 4 3 3 4 8 9 10 11 9 6 5 5 4 5 4 4 5 6 7 11
6 5 4 5 4 4 4 3 3 3 2 2 1 1 0 0 0 0 0 0 1 1 1 2 2 3 7 9 11 12 10 5 5 5 6 5 5 5 4 5 5 8
5 4 4 4 3 2 2 2 2 2 2 2 1 1 1 1 1 1 1 1 0 1 2 2 3 2 4 10 11 12 13 6 4 6 7 6 5 6 5 4 5 5
Wind_Direction
204 202 210 211 214 207 201 203 204 209 212 205 204 205 204 200 189 197 202 202 205 206 201 194 187 186 187 184 179 175 181 188 192 193 197 197 201 194 192 186 179 183
209 206 206 207 213 210 208 200 202 205 212 211 205 195 199 186 194 195 198 201 202 207 203 195 187 183 184 187 187 187 187 187 195 191 196 196 196 190 188 178 172 165
205 207 204 207 210 214 217 217 209 210 209 210 206 202 199 192 192 196 197 200 201 202 198 195 192 190 185 188 190 190 186 185 187 185 188 194 181 181 175 162 158 155
209 205 206 211 209 212 213 215 221 215 210 207 210 206 197 197 198 199 203 202 205 203 200 195 195 194 188 187 187 189 184 183 179 173 177 159 169 160 156 149 145 121
209 214 212 211 213 212 213 218 220 218 208 213 209 204 200 199 204 205 207 208 209 208 201 199 197 194 187 185 183 179 177 173 161 161 159 162 162 156 155 147 146 135
225 223 223 217 216 214 223 228 233 231 231 217 216 194 199 185 190 199 204 208 214 209 209 205 201 193 184 180 176 176 168 157 160 153 155 160 160 152 153 160 158 156
285 300 286 281 260 243 242 255 264 269 281 289 43 216 173 177 193 191 192 204 211 213 208 204 199 195 191 181 181 179 172 162 156 157 155 157 155 159 156 163 165 155
251 279 294 304 291 290 278 281 285 291 266 275 233 227 181 187 194 203 199 201 212 215 215 208 204 195 191 186 185 175 162 157 159 159 162 161 161 165 166 169 163 153
316 304 310 308 304 291 280 269 272 270 257 234 238 234 221 211 201 196 199 207 217 214 205 203 202 200 197 196 191 177 168 166 170 168 165 165 171 175 173 165 159 162
259 248 242 255 265 268 266 271 268 258 248 237 237 230 228 237 222 218 212 210 209 204 201 201 200 194 191 197 183 176 170 169 170 173 170 171 173 168 168 170 170 163
238 233 225 238 258 285 281 281 280 283 297 278 276 259 241 229 238 221 213 207 208 201 199 202 199 192 193 196 195 191 183 174 173 170 165 169 174 175 175 174 173 178
302 317 301 257 250 279 291 298 308 303 285 277 250 255 255 242 228 230 209 213 210 209 203 201 197 194 196 204 200 186 175 174 171 167 170 173 174 175 177 179 177 174
243 265 291 297 280 265 272 286 291 296 287 273 299 279 253 242 240 219 233 215 221 206 203 198 194 187 187 190 188 178 166 157 154 158 167 170 173 171 170 168 167 165
206 216 231 238 9 28 13 345 340 310 298 353 71 254 224 218 220 218 237 212 218 196 186 163 166 170 171 165 167 177 176 168 157 160 164 164 164 165 164 166 165 169
194 135 102 106 102 82 84 53 40 46 46 44 50 53 98 191 169 167 169 190 176 175 169 167 174 185 179 173 168 166 169 172 164 164 167 163 161 161 162 160 162 170
138 131 131 124 121 115 100 93 83 68 69 63 58 73 106 141 154 162 172 185 185 186 179 179 194 193 190 185 179 173 171 167 162 169 169 164 162 162 168 171 164 160
142 140 134 128 129 126 113 106 101 93 83 80 76 70 86 104 148 178 200 195 193 190 193 200 205 203 190 187 182 172 163 165 171 173 169 169 172 168 168 168 157 146
148 142 139 137 119 112 120 117 109 105 100 101 94 68 55 62 88 267 240 211 197 198 202 206 208 189 184 187 185 183 180 175 173 169 171 175 175 172 167 167 156 146
147 147 146 137 130 127 119 104 105 105 106 110 114 119 110 117 171 151 194 173 183 204 220 212 214 192 188 191 192 191 189 182 177 170 171 179 176 172 168 167 161 151
149 146 148 142 131 121 116 115 110 119 117 113 110 105 131 153 159 181 171 189 194 205 214 211 224 207 196 199 197 195 190 186 178 171 175 179 179 173 172 173 171 165
147 147 144 136 127 122 120 130 144 135 130 137 142 154 164 184 187 195 200 191 193 181 185 200 207 193 204 200 197 192 188 177 169 167 172 178 178 176 179 180 176 170
148 146 142 139 139 140 145 159 162 166 166 163 153 155 157 160 181 177 190 185 185 172 179 214 199 186 197 199 194 191 184 172 178 181 180 177 178 180 177 176 172 164
155 153 151 150 156 157 173 179 173 177 174 159 163 179 184 190 197 190 179 180 185 185 187 212 208 191 194 195 193 190 182 183 182 182 181 183 188 179 171 167 170 168
164 161 161 162 163 176 179 176 168 164 177 173 177 190 215 220 193 199 190 186 190 204 198 203 220 189 195 198 197 196 191 187 187 183 188 186 181 170 162 168 174 177
161 161 162 161 169 182 170 168 176 176 143 144 165 149 208 120 98 275 319 286 241 256 255 239 258 206 198 204 202 203 197 189 187 184 185 193 169 171 173 169 181 181
149 153 152 157 166 153 153 158 127 119 131 128 145 121 134 121 144 176 223 272 184 213 244 244 260 245 207 211 211 210 206 196 191 183 198 186 178 174 172 195 189 189